Location: *
(42.0175°N, 9.4056°E)
Time: 18:27:59
(UTC+00:00)

Cosmos 44 Rocket - Pass Details

Date: 25 August 2019
Orbit: 653 x 737 km, 65.1° (Epoch: 22 September)

Event Time Altitude Azimuth Distance (km) Brightness Sun altitude
Rises 19:22:52 0° 324° (NW) 3,034 7.9 -13.7°
Reaches altitude 10° 19:25:14 10° 321° (NW) 2,104 6.9 -14.1°
Maximum altitude 19:29:55 62° 242° (WSW) 744 3.6 -14.9°
Enters shadow 19:33:32 16° 164° (SSE) 1,680 4.9 -15.4°
